Hourly Weather Roundup
Issued by NWS Central Illinois

Home | Current Version | Previous Version | Text Only | Print | Product List | Glossary On
Versions: 1 2 3 4 5 6 7 8 9 10 11 12 13 14 15 16 17 18 19 20 21 22 23 24 25 26 27 28 29 30 31 32 33 34 35 36 37 38 39 40 41 42 43 44 45 46 47 48 49 50
000
NZUS43 KILX 311510
HWRILX

AREA WEATHER ROUNDUP
NATIONAL WEATHER SERVICE, LINCOLN IL
1000 AM CDT WED AUG 31 2016


CITY           SKY/WX    TMP DP  RH WIND       PRES   REMARKS
BLOOMINGTON    MOSUNNY   76  70  82 N7        30.07
CHAMPAIGN      MOSUNNY   78  70  76 N6        30.05S HX  80
DANVILLE       MOSUNNY   78  71  78 N3        30.01S HX  80
DECATUR        CLOUDY    78  69  73 N5        30.05S HX  80
EFFINGHAM      PTSUNNY   78  75  92 NW3       30.07R HX  80
FLORA          CLOUDY    76  74  93 W5        30.05S FOG
GALESBURG      CLOUDY    72  67  83 N8        30.10R
JACKSONVILLE   MOSUNNY   76  72  88 N6        30.08R
LACON          CLOUDY    73  67  84 NE6       30.07R
LAWRENCEVILLE  MOSUNNY   80  73  79 N5        30.03S HX  84
LITCHFIELD     SUNNY     80  78  92 CALM      30.06S HX  88
$$


CITY           SKY/WX    TMP DP  RH WIND       PRES   REMARKS
LINCOLN        CLOUDY    76  73  89 N5        30.06R
MACOMB         PTSUNNY   74  69  83 N7        30.11R
MATTOON        PTSUNNY   75  70  84 N3        30.04S
MT CARMEL AP   MOSUNNY   79  72  78 NW3       30.03S HX  82
OLNEY-NOBLE AP CLOUDY    77  73  88 N3        30.05S
PARIS          MOSUNNY   77  73  86 CALM      30.05S
PEORIA         CLOUDY    72  72 100 N5        30.07S
PONTIAC        CLOUDY    74  72  92 N5        30.07R
RANTOUL        MOSUNNY   79  70  74 N3        30.05S HX  82
ROBINSON       SUNNY     78  73  85 N3        30.04S HX  80
SPRINGFIELD    MOSUNNY   78  71  79 N5        30.07R HX  80
TAYLORVILLE    MOSUNNY   74  71  89 CALM      30.06R
$$

...REGIONAL REPORTS...


CITY           SKY/WX    TMP DP  RH WIND       PRES   REMARKS
CHICAGO O`HARE PTSUNNY   73  62  68 N13G21    30.06S
KANKAKEE       CLOUDY    76  70  83 N5        30.06R
MOLINE         CLOUDY    72  64  76 NE7       30.10S
MOUNT STERLING CLOUDY    74  70  89 N3        30.08S
MOUNT VERNON   PTSUNNY   79  70  73 CALM      30.06S HX  81
PITTSFIELD     MOSUNNY   76  72  88 N3        30.09S
QUINCY         MOSUNNY   76  71  85 N6        30.09R
ROCKFORD       PTSUNNY   73  60  63 N10       30.11S
$$


CITY           SKY/WX    TMP DP  RH WIND       PRES   REMARKS
BURLINGTON     PTSUNNY   72  67  84 N8        30.10S
CEDAR RAPIDS   MOSUNNY   72  62  71 N6        30.13S
DES MOINES     PTSUNNY   73  59  61 N9        30.17R
KIRKSVILLE     CLOUDY    71  68  90 N5        30.13S
OTTUMWA        CLOUDY    69  62  78 N8        30.14R
ST LOUIS       CLOUDY    77  72  84 NW6       30.07R
$$


CITY           SKY/WX    TMP DP  RH WIND       PRES   REMARKS
TERRE HAUTE    MOSUNNY   75  71  87 CALM      30.04R
EVANSVILLE     MOSUNNY   82  72  71 VRB3      30.03S HX  87
INDIANAPOLIS   PTSUNNY   77  71  82 VRB3      30.03S
LAFAYETTE      MOSUNNY   78  69  73 N5        30.02S HX  80
MADISON        MOSUNNY   69  60  73 N8        30.13S
MILWAUKEE      MOSUNNY   71  59  65 N13       30.10R
$$





USA.gov is the U.S. government's official web portal to all federal, state and local government web resources and services.